Location: Zagreb
(45.8000°N, 16.0000°E)
Time: 19:13:48
(UTC+02:00)

SR - Pass Details

Date: 15 August 2020
Orbit: 583 x 873 km, 66.7° (Epoch: 28 September)

Event Time Altitude Azimuth Distance (km) Brightness Sun altitude
Rises 07:04:31 0° 315° (NW) 2,845 ? 10.6°
Reaches altitude 10° 07:07:02 10° 301° (WNW) 1,964 ? 11.0°
Maximum altitude 07:10:33 24° 248° (WSW) 1,314 ? 11.7°
Drops below altitude 10° 07:14:14 10° 195° (SSW) 2,061 ? 12.3°
Sets 07:16:58 0° 182° (S) 3,021 ? 12.8°
